Regional Weather Roundup
Issued by NWS Little Rock, AR

Home | Current Version | Previous Version | Graphics & Text | Print | Product List | Glossary On
Versions: 1 2 3 4 5 6 7 8 9 10 11 12 13 14 15 16 17 18 19 20 21 22 23 24 25 26 27 28 29 30 31
000
ASUS44 KLZK 231212
RWRLZK

WEATHER ROUNDUP FOR ARKANSAS
NATIONAL WEATHER SERVICE LITTLE ROCK AR
700 AM CDT FRI JUN 23 2017

NOTE: "FAIR" INDICATES FEW OR NO CLOUDS BELOW 12,000 FEET WITH NO
SIGNIFICANT WEATHER AND/OR OBSTRUCTIONS TO VISIBILITY.

ARZ001-003-010-029-231300-
NORTHWEST ARKANSAS

CITY           SKY/WX    TMP DP  RH WIND       PRES   REMARKS
FAYETTEVILLE   CLOUDY    67  67 100 S5        29.76R
6HR MIN TEMP:  66; 6HR MAX TEMP:  69;

FORT SMITH     FOG       75  74  96 W6        29.73R VSB 1/4
6HR MIN TEMP:  73; 6HR MAX TEMP:  77;

HARRISON       FOG       70  70 100 W5        29.75R VSB 1/4
6HR MIN TEMP:  70; 6HR MAX TEMP:  73;

BENTONVILLE    SUNNY     72  68  88 CALM      29.76R
6HR MIN TEMP:  70; 6HR MAX TEMP:  72;

ROGERS         SUNNY     69  69 100 CALM      29.76R
6HR MIN TEMP:  68; 6HR MAX TEMP:  74;

SILOAM SPGS    CLEAR     70  66  88 CALM      29.75R
6HR MIN TEMP:  68; 6HR MAX TEMP:  72;

HIGHFILL       CLEAR     72  72 100 SW6       29.75R
6HR MIN TEMP:  68; 6HR MAX TEMP:  73;

SPRINGDALE     SUNNY     72  72 100 CALM      29.77R
$$

ARZ004-005-016-231300-
NORTH CENTRAL ARKANSAS

CITY           SKY/WX    TMP DP  RH WIND       PRES   REMARKS
BATESVILLE     PTSUNNY   73  72  94 NW3       29.65R
6HR MIN TEMP:  73; 6HR MAX TEMP:  77; 6HR PCP:  0.05;

FLIPPIN        CLOUDY    73  70  88 NW3       29.68R
6HR MIN TEMP:  73; 6HR MAX TEMP:  75; 6HR PCP:  0.02;

MTN HOME       CLOUDY    73  73 100 CALM      29.69S
6HR MIN TEMP:  73; 6HR MAX TEMP:  74; 6HR PCP:  0.03;

$$

ARZ040-041-231300-
WEST CENTRAL ARKANSAS

CITY           SKY/WX    TMP DP  RH WIND       PRES   REMARKS
MENA           MOCLDY    75  73  94 W7        29.76R
MOUNT IDA      PTCLDY    75  71  87 CALM      29.72R
6HR MIN TEMP:  73; 6HR MAX TEMP:  76;

$$

ARZ009-017-025-026-028-231300-
NORTHEAST ARKANSAS

CITY           SKY/WX    TMP DP  RH WIND       PRES   REMARKS
JONESBORO      RAIN      75  75 100 SE10      29.62F FOG
6HR MIN TEMP:  74; 6HR MAX TEMP:  78; 6HR PCP:  0.44;

WALNUT RIDGE   CLOUDY    73  70  88 NE8       29.65S
6HR MIN TEMP:  73; 6HR MAX TEMP:  79; 6HR PCP:  0.20;

BLYTHEVILLE    RAIN      75  74  96 SE10G18   29.67F
6HR MIN TEMP:  75; 6HR MAX TEMP:  79; 6HR PCP:  0.42;

$$

ARZ022-023-033-042-044-231300-
CENTRAL ARKANSAS

CITY           SKY/WX    TMP DP  RH WIND       PRES   REMARKS
LITTLE ROCK    CLOUDY    75  75 100 W10       29.68R
6HR MIN TEMP:  75; 6HR MAX TEMP:  76; 6HR PCP:  0.06;

N LITTLE ROCK    N/A     75  74  96 W6        29.68R
6HR MIN TEMP:  74; 6HR MAX TEMP:  75;

JACKSONVILLE   CLOUDY    75  75 100 W9        29.67R
6HR MIN TEMP:  75; 6HR MAX TEMP:  76; 6HR PCP:  0.02;

CONWAY           N/A     75  75 100 W8        29.66R
SEARCY         CLOUDY    75  75 100 MISG      29.66R
6HR MIN TEMP:  74; 6HR MAX TEMP:  77; 6HR PCP:  0.03;

HOT SPRINGS    PTSUNNY   75  74  96 CALM      29.73R
6HR MIN TEMP:  74; 6HR MAX TEMP:  76; 6HR PCP:  0.02;

RUSSELLVILLE   MOSUNNY   74  73  97 SW5       29.69R
6HR MIN TEMP:  73; 6HR MAX TEMP:  76; 6HR PCP:  0.01;

CLINTON        CLOUDY    75  73  94 CALM      29.68R
$$

ARZ036-231300-
EAST ARKANSAS

CITY           SKY/WX    TMP DP  RH WIND       PRES   REMARKS
WEST MEMPHIS   HVY RAIN  74  32  21 S29G45    29.60F VSB 1/4
6HR MIN TEMP:  74; 6HR MAX TEMP:  79; 6HR PCP:  1.31;

$$

ARZ050-053-066-070-073-231300-
SOUTHWEST ARKANSAS

CITY           SKY/WX    TMP DP  RH WIND       PRES   REMARKS
ARKADELPHIA    FAIR      75  74  96 S3        29.74R
6HR MIN TEMP:  74; 6HR MAX TEMP:  76; 6HR PCP:  0.10;

CAMDEN         CLOUDY    77  73  88 S5        29.75R FOG
TEXARKANA      MOCLDY    78  76  93 W9        29.75R
6HR MIN TEMP:  75; 6HR MAX TEMP:  78;

EL DORADO      CLOUDY    76  75  97 S6        29.77R
6HR MIN TEMP:  76; 6HR MAX TEMP:  77; 6HR PCP:  0.28;

DE QUEEN       MOCLDY    73  73 100 CALM      29.72R
6HR MIN TEMP:  72; 6HR MAX TEMP:  74;

$$

ARZ056-057-069-231300-
SOUTHEAST ARKANSAS

CITY           SKY/WX    TMP DP  RH WIND       PRES   REMARKS
PINE BLUFF     CLOUDY    76  74  93 SW14      29.71R
6HR MIN TEMP:  75; 6HR MAX TEMP:  77; 6HR PCP:  1.77;

STUTTGART      CLOUDY    75  64  69 W10       29.66R
                                      6HR PCP:  0.64;

MONTICELLO     LGT RAIN  74  71  91 SW17G26   29.75R
6HR MIN TEMP:  74; 6HR MAX TEMP:  77; 6HR PCP:  2.73;


$$






USA.gov is the U.S. government's official web portal to all federal, state and local government web resources and services.